Location: Bottom School (historical)
(37.9078°N, 89.3593°W)
Time: 14:22:30
(UTC+00:00)

Cosmos 1570 Rocket - Pass Details

Date: 07 July 2022
Orbit: 762 x 788 km, 74.1° (Epoch: 18 August)

Event Time Altitude Azimuth Distance (km) Brightness Sun altitude
Exits shadow 09:24:50 - 272° (W) 2,439 6.2 -13.1°
Reaches altitude 10° 09:25:37 10° 279° (W) 2,303 6.1 -13.0°
Maximum altitude 09:27:48 13° 304° (NW) 2,136 6.2 -12.7°
Drops below altitude 10° 09:30:00 10° 329° (NNW) 2,314 6.6 -12.3°
Sets 09:33:57 0° 359° (N) 3,252 7.9 -11.8°
